Osoyoos, British Columbia

1:21 AM PST on January 22, 2018 (GMT -0800)
Osoyoos

Weather History for CWYY - November, 2012

Change the Weather History Date:

Thursday, November 22, 2012

  Actual Average (KOMK) Record (KOMK)
Temperature  
Mean Temperature 36 °F 33 °F  
Max Temperature 43 °F 40 °F 56 °F (1968)
Min Temperature 28 °F 26 °F 10 °F (1961)
Degree Days  
Heating Degree Days 30 32  
Month to date heating degree days 604  
Since 1 July heating degree days 1264  
Cooling Degree Days 0 0  
Month to date cooling degree days 0  
Year to date cooling degree days 665  
Moisture  
Dew Point 30 °F    
Average Humidity 72    
Maximum Humidity 92    
Minimum Humidity 54    
Precipitation  
Precipitation 0.00 in 0.05 in 0.71 in (1979)
Month to date precipitation 1.12  
Year to date precipitation 12.06  
Sea Level Pressure  
Sea Level Pressure 30.39 in    
Wind  
Wind Speed 4 mph ()    
Max Wind Speed 10 mph    
Max Gust Speed -    
T = Trace of Precipitation, MM = Missing Value Source: Averaged Metar Reports

Daily Weather History Graph

Daily Weather History Graph

Search for Another Location

Airport or City:

Trip Planner

Search our weather history database for the weather conditions in past years. The results will help you decide how hot, cold, wet, or windy it might be!

Date:

Astronomy

Nov. 22, 2012 Rise Set
Actual Time 7:18 AM PST 4:08 PM PST
Civil Twilight 6:43 AM PST 4:44 PM PST
Nautical Twilight 6:04 AM PST 5:23 PM PST
Astronomical Twilight 5:26 AM PST 6:01 PM PST
Moon 1:20 PM PST 1:17 AM PST
Length of Visible Light 10h 01m
Length of Day
8h 49m
Waxing Gibbous, 72% of the Moon is Illuminated
Nov 22
Waxing Gibbous
Nov 28
Full
Dec 6
Last Quarter
Dec 13
New
Dec 19
First Quarter

Hourly Weather History & Observations

Time (PST) Temp. Windchill Dew Point Humidity Pressure Visibility Wind Dir Wind Speed Gust Speed Precip Events Conditions
12:00 AM 33.4 °F 30.4 °F 30.0 °F 87% 30.19 in - NE 3.5 mph - N/A   Unknown
1:00 AM 31.6 °F - 29.1 °F 90% 30.22 in - NNE 1.2 mph - N/A   Unknown
2:00 AM 32.9 °F - 30.4 °F 90% 30.26 in - North 1.2 mph - N/A   Unknown
3:00 AM 32.0 °F - 27.7 °F 84% 30.29 in - Calm Calm - N/A   Unknown
4:00 AM 37 °F - 28 °F 60% 30.32 in - SE 4.6 mph - -  
4:00 AM 36.9 °F 33.1 °F 28.2 °F 71% 30.32 in - SE 4.6 mph - N/A   Unknown
5:00 AM 31.5 °F - 27.3 °F 85% 30.36 in - Calm Calm - N/A   Unknown
6:00 AM 28.9 °F - 26.8 °F 92% 30.39 in - ENE 1.2 mph - N/A   Unknown
7:00 AM 28.8 °F - 26.4 °F 91% 30.41 in - NE 2.3 mph - N/A   Unknown
8:00 AM 29.3 °F - 26.8 °F 90% 30.43 in - NNE 1.2 mph - N/A   Unknown
9:00 AM 33.8 °F - 30.2 °F 87% 30.45 in - SE 1.2 mph - N/A   Unknown
10:00 AM 37 °F - 29 °F 62% 30.46 in - South 3.5 mph - -  
10:00 AM 37.0 °F 34.5 °F 28.6 °F 71% 30.46 in - South 3.5 mph - N/A   Unknown
11:00 AM 39.2 °F 37.0 °F 29.5 °F 68% 30.46 in - South 3.5 mph - N/A   Unknown
12:00 PM 39.6 °F 34.7 °F 29.3 °F 67% 30.46 in - South 6.9 mph - N/A   Unknown
1:00 PM 41.2 °F 35.5 °F 28.9 °F 62% 30.44 in - SSE 9.2 mph - N/A   Unknown
2:00 PM 41.5 °F 36.4 °F 30.7 °F 65% 30.43 in - SSE 8.1 mph - N/A   Unknown
3:00 PM 41.7 °F 38.0 °F 32.0 °F 68% 30.43 in - SSE 5.8 mph - N/A   Unknown
4:00 PM 43 °F - 32 °F 54% 30.44 in - SSE 6.9 mph - -  
4:00 PM 42.8 °F 38.6 °F 31.8 °F 65% 30.44 in - SSE 6.9 mph - N/A   Unknown
5:00 PM 43.2 °F 38.4 °F 31.6 °F 64% 30.43 in - SE 8.1 mph - N/A   Unknown
6:00 PM 43.5 °F 38.3 °F 31.8 °F 63% 30.43 in - SSE 9.2 mph - N/A   Unknown
7:00 PM 43.2 °F 37.4 °F 31.3 °F 63% 30.43 in - SE 10.4 mph - N/A   Unknown
8:00 PM 43.2 °F 38.4 °F 31.6 °F 64% 30.42 in - SSE 8.1 mph - N/A   Unknown
9:00 PM 43.3 °F 38.1 °F 32.0 °F 64% 30.39 in - South 9.2 mph - N/A   Unknown
10:00 PM 43 °F - 32 °F 55% 30.38 in - SSE 6.9 mph - -  
10:00 PM 42.8 °F 38.6 °F 31.6 °F 65% 30.38 in - SSE 6.9 mph - N/A   Unknown
11:00 PM 42.4 °F 38.1 °F 31.6 °F 66% 30.37 in - SE 6.9 mph - N/A   Unknown